This is the latest recevied weather packets stored in our database for station/object KC2GYU. If no packets are shown the sender has not sent any weather packets the latest 10 day(s).
| Time | Temp. | Humidity | Pressure | Rain* | Wind** | Luminosity | Snow |
|---|---|---|---|---|---|---|---|
| 1778073303 | 18.33° C | 87% | 1012.6 hPa | 0 mm | - | 223 W/m² | - |
| 1778073000 | 17.78° C | 88% | 1012.6 hPa | 0 mm | - | 234 W/m² | - |
| 1778072696 | 18.33° C | 87% | 1012.6 hPa | 0 mm | - | 192 W/m² | - |
| 1778072394 | 18.33° C | 87% | 1012.8 hPa | 0 mm | - | 287 W/m² | - |
| 1778072092 | 19.44° C | 85% | 1012.6 hPa | 0 mm | - | 245 W/m² | - |
| 1778071790 | 18.89° C | 86% | 1012.5 hPa | 0 mm | - | 295 W/m² | - |
| 1778071489 | 18.33° C | 86% | 1012.5 hPa | 0 mm | - | 417 W/m² | - |
| 1778071185 | 18.33° C | 87% | 1012.5 hPa | 0 mm | - | 362 W/m² | - |
| 1778070883 | 18.33° C | 88% | 1012.7 hPa | 0 mm | - | 294 W/m² | - |
| 1778070580 | 17.78° C | 88% | 1012.4 hPa | 0 mm | - | 269 W/m² | - |
| 1778070277 | 17.78° C | 89% | 1012.5 hPa | 0 mm | - | 252 W/m² | - |
| 1778069975 | 17.78° C | 89% | 1012.6 hPa | 0 mm | - | 239 W/m² | - |
| 1778069672 | 17.22° C | 90% | 1012.4 hPa | 0 mm | - | 208 W/m² | - |
| 1778069369 | 17.22° C | 91% | 1012.5 hPa | 0 mm | - | 166 W/m² | - |
| 1778069066 | 17.22° C | 91% | 1012.7 hPa | 0 mm | - | 121 W/m² | - |
| 1778068763 | 17.22° C | 91% | 1012.4 hPa | 0 mm | - | 99 W/m² | - |
| 1778068461 | 17.22° C | 90% | 1012.6 hPa | 0 mm | - | 161 W/m² | - |
| 1778068159 | 17.22° C | 90% | 1012.4 hPa | 0 mm | - | 200 W/m² | - |
| 1778067856 | 17.22° C | 91% | 1012.4 hPa | 0 mm | - | 117 W/m² | - |
| 1778067555 | 16.67° C | 92% | 1012.6 hPa | 0 mm | - | 106 W/m² | - |
| 1778067252 | 16.67° C | 92% | 1012.5 hPa | 0 mm | - | 112 W/m² | - |
| 1778066949 | 16.11° C | 93% | 1012.4 hPa | 0 mm | - | 95 W/m² | - |
| 1778066647 | 15.56° C | 94% | 1012.3 hPa | 0 mm | - | 78 W/m² | - |
| 1778066350 | 15.56° C | 95% | 1012.1 hPa | 0 mm | - | 70 W/m² | - |
| 1778066042 | 15° C | 96% | 1012.4 hPa | 0 mm | - | 52 W/m² | - |
* Rain latest hour (hover to see other rain measurements)
** Current wind speed in m/s (hover to see current wind gust speed)